TimeCST,TemperatureF,Dew PointF,Humidity,Sea Level PressureIn,VisibilityMPH,Wind Direction,Wind SpeedMPH,Gust SpeedMPH,PrecipitationIn,Events,Conditions,WindDirDegrees,DateUTC
12:55 AM,39.2,39.2,100,29.98,10.0,Calm,Calm,-,N/A,,Clear,0,2013-02-24 06:55:00
1:15 AM,39.2,37.4,93,29.98,7.0,Calm,Calm,-,N/A,,Clear,0,2013-02-24 07:15:00
1:35 AM,39.2,37.4,93,29.98,7.0,Calm,Calm,-,N/A,,Clear,0,2013-02-24 07:35:00
1:55 AM,39.2,37.4,93,29.98,10.0,Calm,Calm,-,N/A,,Clear,0,2013-02-24 07:55:00
2:15 AM,37.4,37.4,100,29.96,7.0,Calm,Calm,-,N/A,,Clear,0,2013-02-24 08:15:00
2:35 AM,37.4,37.4,100,29.96,7.0,Calm,Calm,-,N/A,,Clear,0,2013-02-24 08:35:00
2:55 AM,37.4,37.4,100,29.96,7.0,Calm,Calm,-,N/A,,Clear,0,2013-02-24 08:55:00
3:15 AM,37.4,37.4,100,29.95,7.0,Calm,Calm,-,N/A,,Clear,0,2013-02-24 09:15:00
3:35 AM,37.4,35.6,93,29.94,7.0,Calm,Calm,-,N/A,,Clear,0,2013-02-24 09:35:00
3:55 AM,37.4,35.6,93,29.94,10.0,Calm,Calm,-,N/A,,Clear,0,2013-02-24 09:55:00
4:15 AM,37.4,35.6,93,29.93,7.0,Calm,Calm,-,N/A,,Clear,0,2013-02-24 10:15:00
4:35 AM,37.4,35.6,93,29.93,10.0,Calm,Calm,-,N/A,,Clear,0,2013-02-24 10:35:00
4:55 AM,37.4,35.6,93,29.93,10.0,Calm,Calm,-,N/A,,Clear,0,2013-02-24 10:55:00
5:15 AM,37.4,35.6,93,29.93,7.0,Calm,Calm,-,N/A,,Clear,0,2013-02-24 11:15:00
5:35 AM,37.4,35.6,93,29.94,7.0,Calm,Calm,-,N/A,,Clear,0,2013-02-24 11:35:00
5:55 AM,35.6,35.6,100,29.94,7.0,Calm,Calm,-,N/A,,Clear,0,2013-02-24 11:55:00
6:15 AM,35.6,35.6,100,29.95,7.0,Calm,Calm,-,N/A,,Clear,0,2013-02-24 12:15:00
6:35 AM,35.6,33.8,93,29.96,7.0,Calm,Calm,-,N/A,,Clear,0,2013-02-24 12:35:00
6:55 AM,37.4,35.6,93,29.97,10.0,Calm,Calm,-,N/A,,Clear,0,2013-02-24 12:55:00
7:15 AM,37.4,37.4,100,29.98,10.0,Calm,Calm,-,N/A,,Clear,0,2013-02-24 13:15:00
7:35 AM,42.8,41.0,93,29.98,10.0,North,3.5,-,N/A,,Clear,10,2013-02-24 13:35:00
7:55 AM,44.6,41.0,87,29.99,10.0,NNE,3.5,-,N/A,,Clear,30,2013-02-24 13:55:00
8:15 AM,46.4,42.8,87,29.99,10.0,NE,4.6,-,N/A,,Clear,40,2013-02-24 14:15:00
8:35 AM,48.2,42.8,82,29.99,10.0,ENE,3.5,-,N/A,,Clear,60,2013-02-24 14:35:00
8:55 AM,50.0,44.6,82,30.00,10.0,NE,5.8,-,N/A,,Clear,50,2013-02-24 14:55:00
9:15 AM,51.8,44.6,76,30.00,10.0,NE,4.6,-,N/A,,Clear,50,2013-02-24 15:15:00
9:35 AM,55.4,44.6,67,30.00,10.0,East,5.8,-,N/A,,Clear,80,2013-02-24 15:35:00
9:55 AM,57.2,44.6,63,29.99,10.0,ENE,6.9,-,N/A,,Clear,60,2013-02-24 15:55:00
10:15 AM,59.0,42.8,55,29.99,10.0,East,6.9,-,N/A,,Clear,90,2013-02-24 16:15:00
10:35 AM,60.8,42.8,52,29.98,10.0,East,4.6,-,N/A,,Clear,80,2013-02-24 16:35:00
10:55 AM,60.8,42.8,52,29.97,10.0,ENE,5.8,-,N/A,,Clear,70,2013-02-24 16:55:00
11:15 AM,62.6,42.8,48,29.97,10.0,ENE,3.5,-,N/A,,Clear,60,2013-02-24 17:15:00
11:35 AM,64.4,41.0,42,29.96,10.0,ESE,6.9,-,N/A,,Clear,120,2013-02-24 17:35:00
11:55 AM,66.2,41.0,40,29.95,10.0,ENE,8.1,-,N/A,,Clear,70,2013-02-24 17:55:00
12:15 PM,66.2,41.0,40,29.93,10.0,ENE,5.8,-,N/A,,Clear,70,2013-02-24 18:15:00
12:35 PM,66.2,42.8,43,29.92,10.0,NE,4.6,-,N/A,,Clear,50,2013-02-24 18:35:00
12:55 PM,68.0,41.0,37,29.91,10.0,East,9.2,-,N/A,,Clear,90,2013-02-24 18:55:00
1:15 PM,68.0,41.0,37,29.90,10.0,East,6.9,-,N/A,,Clear,100,2013-02-24 19:15:00
1:35 PM,68.0,41.0,37,29.88,10.0,East,6.9,-,N/A,,Clear,100,2013-02-24 19:35:00
1:55 PM,68.0,42.8,40,29.87,10.0,East,8.1,-,N/A,,Clear,100,2013-02-24 19:55:00
2:15 PM,68.0,42.8,40,29.86,10.0,ENE,8.1,-,N/A,,Clear,70,2013-02-24 20:15:00
2:35 PM,69.8,42.8,38,29.85,10.0,East,8.1,-,N/A,,Clear,90,2013-02-24 20:35:00
2:55 PM,69.8,44.6,40,29.84,10.0,ENE,3.5,-,N/A,,Clear,70,2013-02-24 20:55:00
3:15 PM,68.0,44.6,43,29.84,10.0,ENE,4.6,-,N/A,,Clear,70,2013-02-24 21:15:00
3:35 PM,68.0,46.4,46,29.83,10.0,ENE,3.5,-,N/A,,Scattered Clouds,70,2013-02-24 21:35:00
3:55 PM,66.2,46.4,49,29.83,10.0,NE,4.6,-,N/A,,Scattered Clouds,50,2013-02-24 21:55:00
4:15 PM,66.2,46.4,49,29.83,10.0,East,3.5,-,N/A,,Scattered Clouds,90,2013-02-24 22:15:00
4:35 PM,64.4,48.2,56,29.80,10.0,NE,4.6,-,N/A,,Scattered Clouds,40,2013-02-24 22:35:00
4:55 PM,64.4,48.2,56,29.80,10.0,Calm,Calm,-,N/A,,Scattered Clouds,0,2013-02-24 22:55:00
5:15 PM,62.6,48.2,59,29.80,10.0,NNE,3.5,-,N/A,,Scattered Clouds,30,2013-02-24 23:15:00
5:55 PM,62.6,50.0,63,29.82,10.0,Calm,Calm,-,N/A,,Mostly Cloudy,0,2013-02-24 23:55:00
6:15 PM,60.8,50.0,68,29.78,10.0,ENE,5.8,-,N/A,,Mostly Cloudy,60,2013-02-25 00:15:00
6:35 PM,60.8,48.2,63,29.77,10.0,NE,3.5,-,N/A,Rain,Light Rain,50,2013-02-25 00:35:00
6:55 PM,57.2,50.0,77,29.79,10.0,Calm,Calm,-,N/A,,Scattered Clouds,0,2013-02-25 00:55:00
7:15 PM,59.0,51.8,77,29.79,10.0,NNW,3.5,-,N/A,,Mostly Cloudy,340,2013-02-25 01:15:00
7:35 PM,59.0,50.0,72,29.78,10.0,NNE,4.6,-,N/A,,Overcast,20,2013-02-25 01:35:00
7:55 PM,60.8,50.0,68,29.80,10.0,Calm,Calm,-,N/A,,Overcast,0,2013-02-25 01:55:00
8:15 PM,59.0,50.0,72,29.78,10.0,ENE,4.6,-,N/A,,Overcast,60,2013-02-25 02:15:00
8:35 PM,59.0,50.0,72,29.79,10.0,ESE,3.5,-,N/A,,Scattered Clouds,120,2013-02-25 02:35:00
8:55 PM,59.0,50.0,72,29.77,10.0,East,3.5,-,N/A,Rain-Thunderstorm,Rain,80,2013-02-25 02:55:00
9:15 PM,60.8,51.8,72,29.78,10.0,Calm,Calm,-,N/A,,Overcast,0,2013-02-25 03:15:00
9:35 PM,59.0,51.8,77,29.77,10.0,Calm,Calm,-,N/A,,Overcast,0,2013-02-25 03:35:00
9:55 PM,59.0,53.6,82,29.76,10.0,East,3.5,-,N/A,,Overcast,90,2013-02-25 03:55:00
10:15 PM,60.8,55.4,82,29.75,10.0,East,8.1,-,N/A,,Overcast,100,2013-02-25 04:15:00
10:35 PM,60.8,55.4,82,29.75,10.0,East,9.2,-,N/A,,Overcast,90,2013-02-25 04:35:00
10:55 PM,60.8,55.4,82,29.74,10.0,East,5.8,-,N/A,,Overcast,90,2013-02-25 04:55:00
11:15 PM,60.8,57.2,88,29.74,10.0,Calm,Calm,-,N/A,,Overcast,0,2013-02-25 05:15:00
11:35 PM,60.8,57.2,88,29.73,10.0,East,5.8,-,N/A,,Overcast,80,2013-02-25 05:35:00
11:55 PM,60.8,57.2,88,29.72,10.0,East,4.6,-,N/A,,Overcast,80,2013-02-25 05:55:00